Regional Weather Roundup
Issued by NWS

Home | Current Version | Previous Version | Text Only | Print | Product List | Glossary On
Versions: 1 2 3 4 5 6 7 8 9 10 11 12 13 14 15 16 17 18 19 20 21 22 23 24 25 26 27 28 29 30 31 32 33 34 35 36 37 38 39 40 41 42 43 44 45 46 47 48 49 50
000
ASUS44 KEWX 291403
RWRTX
SOUTH TEXAS REGIONAL WEATHER ROUNDUP
NATIONAL WEATHER SERVICE AUSTIN/SAN ANTONIO TX
900 AM CDT WED MAR 29 2017

NOTE: "FAIR" INDICATED FEW OR NO CLOUDS BELOW 12,000 FEET WITH NO
SIGNIFICANT WEATHER AND/OR OBSTRUCTIONS TO VISIBILITY.

* - THESE STATIONS ARE NOT NWS OR FAA STATIONS...AND ARE NOT SUBJECT
    TO NWS AND FAA QUALITY CONTROL.

TXZ171-172-183>190-291500-
TEXAS HILL COUNTRY AND EDWARDS PLATEAU

CITY           SKY/WX    TMP DP  RH WIND       PRES   REMARKS
JUNCTION       SUNNY     50  50 100 CALM      29.79R
*LLANO         SUNNY     55  55 100 CALM      29.81R
BURNET         FOG       57  56  96 S6        29.80R VSB 1/4
*HORSESHOE BAY SUNNY     60  57  89 CALM      29.79R
*KERRVILLE     SUNNY     52  51  95 CALM      29.80R
*FREDERICKSBRG SUNNY     51  50  96 CALM      29.79S
*ROCKSPRINGS   SUNNY     55  43  62 CALM      29.81R
*BOERNE STAGE  SUNNY     55  54  94 CALM      29.80R
*CASTROVILLE   PTSUNNY   58  58 100 CALM      29.80R FOG
HONDO          MOSUNNY   59  56  89 N3        29.79R
*UVALDE        SUNNY     56  52  84 CALM      29.80R
DEL RIO        SUNNY     54  52  93 CALM      29.79R
LAUGHLIN AFB   NOT AVBL
CARRIZO SPRGS  SUNNY     59  52  77 W3        29.79R
*EAGLE PASS    SUNNY     55  52  88 W7        29.80R
$$

TXZ173-191>194-202-209-217>225-228-291500-
CENTRAL AND SOUTH CENTRAL TEXAS

CITY           SKY/WX    TMP DP  RH WIND       PRES   REMARKS
GEORGETOWN     PTSUNNY   61  57  88 S6        29.78R
AUSTIN/BERGSTM CLOUDY    63  61  93 CALM      29.79R
AUSTIN/MABRY   CLOUDY    61  61 100 VRB3      29.80R
*AUSTIN/EXEC   MOSUNNY   59  59 100 CALM      29.80R
*LAGO VISTA    FOG       60  59  97 SE3       29.80R VSB<1/4
SAN MARCOS     FOG       61  59  94 CALM      29.80R VSB 1/4
NEW BRAUNFELS  CLOUDY    61  60  97 CALM      29.78R FOG
RANDOLPH AFB   FOG       60  60 100 CALM      29.79R VSB 0
PT SAN ANTONIO FOG       61  61  98 CALM      29.76R VSB 0
SAN ANTONIO    FOG       60  59  96 NE3       29.78R VSB 1/4
STINSON FIELD  SUNNY     64  61  90 E5        29.77R
*PLEASANTON    SUNNY     63  63 100 CALM      29.78R
*LA GRANGE     CLOUDY    65  64  97 CALM      29.78R
*GIDDINGS      CLOUDY    62  60  96 S3        29.78S
*GONZALES      CLOUDY    64  64 100 CALM      29.78R
$$

TXZ163>164-176>182-195>201-210>213-226-227-235-291500-
SOUTHEAST TEXAS

CITY           SKY/WX    TMP DP  RH WIND       PRES   REMARKS
COLLEGE STN    CLOUDY    63  62  97 CALM      29.77F
*BRYAN         CLOUDY    62  62 100 S3        29.79R
*CALDWELL      NOT AVBL
*CROCKETT      LGT RAIN  61  59  94 CALM      29.84F
*BRENHAM       CLOUDY    64  63  97 N5        29.78F
HUNTSVILLE     TSTM      64  61  90 CALM      29.87R FOG
CONROE         CLOUDY    65  61  87 NW7       29.88R
HOUSTON BUSH   CLOUDY    74  67  78 E9        29.82R
HOUSTON HOBBY  PTSUNNY   75  68  78 E10       29.81R
*HOUSTON SW AP CLOUDY    73  68  86 E7        29.80F
PEARLAND       CLOUDY    77  68  73 E9        29.82S
HOUSTON HOOKS  CLOUDY    69  63  81 NE6       29.83R
ELLINGTON FLD  PTSUNNY   73  68  83 E10       29.82S
SUGAR LAND     CLOUDY    75  68  78 E10       29.77F
*HOUSTON EXEC  LGT RAIN  66  64  94 SW22G33   29.80F
*CLEVELAND MUN MOSUNNY   72  68  87 CALM      29.86R FOG
*WHARTON       CLOUDY    73  66  80 NW18      29.79R
*COLUMBUS      CLOUDY    64  62  94 CALM      29.78F
*EAGLE LAKE    TSTM      65  65  99 E6        29.77F
$$

TXZ214>216-236>238-291500-
THE UPPER TEXAS COAST

CITY           SKY/WX    TMP DP  RH WIND       PRES   REMARKS
*ORANGE        CLOUDY    75  69  82 SE5       29.90S
PORT ARTHUR    CLOUDY    76  68  76 SE12      29.87S
GALVESTON      MOSUNNY   76  71  85 E12       29.84R
ANGLETON       CLOUDY    75  71  87 SE9       29.80S
*BAY CITY      CLOUDY    74  70  88 E9        29.77F
PALACIOS       CLOUDY    73  70  90 SE13      29.75F
$$

TXZ229>234-239>247-291500-
TEXAS COASTAL BEND AND RIO GRANDE PLAINS

CITY           SKY/WX    TMP DP  RH WIND       PRES   REMARKS
VICTORIA       TSTM      61  58  90 E8        29.77F
*BEEVILLE      CLOUDY    67  61  79 NE3       29.77R
ROCKPORT       LGT RAIN  73  69  87 SE8       29.75
*PORT ARANSAS  LGT RAIN  73  70  91 SE5       29.75R
*PORT LAVACA   CLOUDY    67  62  84 NW16G23   29.80R
*INGLESIDE     CLOUDY    75  72  90 SE3       29.75R
CORPUS CHRISTI CLOUDY    67  64  90 N7        29.76R
CORPUS NAS     LGT RAIN  75  73  93 SE8       29.75R FOG
*ROBSTOWN      CLOUDY    68  63  84 CALM      29.76R
ALICE          CLOUDY    69  64  84 NE6       29.76R
KINGSVILLE NAS CLOUDY    70  66  87 N7        29.77R
COTULLA        SUNNY     63  57  81 NW6       29.79R
*FAITH RANCH   SUNNY     61  52  72 W7        29.81R
LAREDO         SUNNY     68  58  70 NW10      29.81R
$$

TXZ248>255-291500-
DEEP SOUTH TEXAS

CITY           SKY/WX    TMP DP  RH WIND       PRES   REMARKS
BROWNSVILLE    CLOUDY    79  73  82 S14       29.74R
PORT ISABEL    CLOUDY    79  73  82 S9        29.73R HAZE
*SOUTH PADRE   NOT AVBL
HARLINGEN      CLOUDY    78  73  84 SW10      29.73R
*HEBBRONVILLE  CLOUDY    69  64  83 NE7       29.79R
MCALLEN        CLOUDY    78  70  76 CALM      29.74R
*WESLACO       CLOUDY    77  70  80 W5        29.73R HAZE
FALFURRIAS     CLOUDY    74  71  92 N5        29.76R
EDINBURG       PTSUNNY   79  70  74 SW3       29.75R
*ZAPATA        MOSUNNY   71  61  70 N6        29.78R
$$

TXZ213>215-236>238-242>244-246-247-251-254-255-291500-
CMAN STATIONS

STATION/POSITION TIME  TEMP    WIND        PRES    WAVE
                       AIR SEA DIR/SP/G            HT/PER
                 (UTC) (F)     (DEG/KT/KT) (MB)    (FT/S)
SABINE PASS      1330   74 77  130/ 10/ 12 1012.9
SEA RIM ST PARK  1300   73     120/  6/  7 1011.7
NORTH JETTY/GLS  1330      74   90/ 16/ 17   N/A
EAGLE POINT      1330   74 76  120/ 12/ 14 1010.1
MORGANS POINT    1330   74 76  100/ 11/ 14 1010.0
MISSION/ARANSAS  1300   76                 1007.0
PORT O`CONNOR    1330   73     140/  8/ 11 1007.2
PORT ARANSAS     1300   73 75  120/ 10/ 10 1006.7
MALAQUITE BEACH  1330   73 74  110/  8/  9 1007.6
BAFFIN BAY       1330   74 76  120/  6/  9 1007.1
PORT ISABEL      1330   77 76  170/ 11/ 15 1006.7
$$

GMZ080-GMZ150>470-291500-
OFFSHORE BUOY REPORTS

STATION/POSITION TIME  TEMP    WIND        PRES    WAVE
                       AIR SEA DIR/SP/G            HT/PER
                 (UTC) (F)     (DEG/KT/KT) (MB)    (FT/S)
20 E GALVESTON   1250   73 71  120/  6/  8 1010.4    6/ 8
90 E PT ARANSAS  1250   75 73  160/ 16/ 19 1007.6    9/ 8
35 NE PT MANSFLD 1250   74     200/  8/  8 1006.3   10/ 9
200 E PT ISABEL  1250   77 77  150/ 21/ 25 1007.7   10/ 8
$$




USA.gov is the U.S. government's official web portal to all federal, state and local government web resources and services.